星链-4443 (STARLINK-4443 )

导读 | 星芒AI

STARLINK-4443 是 SpaceX 星链计划中的一颗低轨道卫星,属于该星座的众多通信卫星之一。它运行在约 550 公里的高度,旨在为全球用户提供高速互联网服务。该卫星采用可重复使用的设计,配备先进通信设备,支持宽带数据传输。作为星链网络的一部分,STARLINK-4443 有助于扩大覆盖范围,提升连接质量,特别是在偏远和网络基础设施薄弱的地区。其发射和运行是 SpaceX 推动全球互联网普及战略的重要一环。

基本信息
目录编号:
53508
目录名称:
STARLINK-4443
国际标识:
2022-099AV
轨道中心:
EARTH
卫星名称:
星链-4443
卫星全名:
星链-4443 (STARLINK-4443 )
卫星状态:
在轨 (已飞行1181 天)
发射日期:
2022-08-12 UTC
国别 :
美国 (US)
星等 :
--
轨道信息
数据来源 国际轨道数据
星历时间: 2025-11-04T16:17:42+0800
19小时前
查看轨道信息
半长轴: 6927.646km
偏心率: 0.0002065
轨道倾角: 97.604°
近地点辐角 97.644°
升交点赤经 67.687°
平近点角 262.502°
近地点: 548.08km
远地点: 550.942km
周期: 95.640分钟
每日圈数: 15.056509
详细信息
固有亮度:
5
最大亮度:
2.5
卫星平台:
Starlink v1.5
覆盖范围:
全球
运营商:
太空探索技术公司
运营商所在国:
美国
制造商(研发单位):
太空探索技术公司
制造商所在国:
美国
使用方式:
暂无
卫星简介
星链(Starlink)计划是由太空探索技术公司(SpaceX)提出的一个巨型低轨卫星互联网星座项目,计划在2019年至2024年间在太空搭建由约1.2万颗卫星组成的“星链”网络,其中1584颗将部署在地球上空550千米处的近地轨道,并从2020年开始工作。该卫星仍在工作。
2D轨道图
3D轨道图
轨道高度分析图
轨道倾角分析图
轨道综合分析图
查看轨道综合分析图